Content
SEND FEEDBACK

Daily
Averages
Monthly
Summary
United States of America

TILLAMOOK, OREGON


Home > North America > United States > Oregon
Elevation: 10 feet     Latitude: 45 27N     Longitude: 123 52W

WEATHER
 
SELECT A DAY
Number of Records: 188,389;   Date Range: 11/29/06 - 8/12/14
 
SHARE

PRINT THIS DATA

[ ← Previous Day ]
WEATHER ALMANAC - FEBRUARY 5, 2013
[ Next Day → ]
[ °C ]   °F
Weather ElementAverageHighLow
Temperature49.4 °F53.6 °F (11:55 am)46.4 °F (4:15 am)
Dewpoint44.2 °F46.4 °F (8:15 am)41 °F (12:35 am)
Humidity82.5 %93 % (4:35 am)71 % (12:55 am)
Barometer29.95 in30.03 in (11:35 pm)29.90 in (6:55 am)
Wind Speed9.3 mph17.3 mph (11:55 am)
Wind Gust27.6 mph (11:55 am)
Weather ElementAverage
Visibility8.9 mi
Wind DirectionSSE (173.7 °)

Weather ElementTotal
Precipitation0.53 in
Heating Degree Days15 (Base 65)
Averaged from 70 records on February 5, 2013
WEATHER CONDITIONS BREAKOUT
WIND DIRECTION BREAKOUT
WEATHER BY HOUR - FEBRUARY 5, 2013
[ °C ]   °F
Local TimeTemperatureDewpointHumidityBarometerVisibilityWind DirectionWind SpeedGust SpeedPrecipitationEventsConditions
12:35 AM48.2 °F41.0 °F76 %29.96 in10.0 miSouth (180°)12.7 mphOvercast
12:55 AM50.0 °F41.0 °F71 %29.96 in10.0 miSouth (190°)12.7 mph20.7 mphOvercast
1:15 AM50.0 °F41.0 °F71 %29.96 in10.0 miSouth (180°)11.5 mph20.7 mphOvercast
1:35 AM48.2 °F41.0 °F76 %29.96 in10.0 miSouth (180°)9.2 mphOvercast
1:55 AM48.2 °F41.0 °F76 %29.96 in10.0 miSouth (170°)6.9 mphOvercast
2:15 AM48.2 °F41.0 °F76 %29.96 in10.0 miSouth (170°)5.8 mphLight Drizzle
2:35 AM48.2 °F42.8 °F82 %29.96 in10.0 miSE (130°)5.8 mphOvercast
2:55 AM48.2 °F41.0 °F76 %29.95 in10.0 miSE (130°)6.9 mphLight Drizzle
3:15 AM48.2 °F41.0 °F76 %29.93 in10.0 miSE (140°)10.4 mphOvercast
3:35 AM48.2 °F42.8 °F82 %29.94 in7.0 miSSW (200°)8.1 mphLight Drizzle
3:55 AM48.2 °F42.8 °F82 %29.93 in7.0 miSouth (180°)6.9 mphRainLight Rain
4:15 AM46.4 °F42.8 °F87 %29.93 in5.0 miSSE (160°)8.1 mphRainLight Rain
4:35 AM46.4 °F44.6 °F93 %29.93 in7.0 miSE (140°)6.9 mph0.01 inRainRain
4:55 AM46.4 °F44.6 °F93 %29.93 in7.0 miSSE (160°)5.8 mph0.02 inRainRain
5:15 AM46.4 °F44.6 °F93 %29.93 in5.0 miSSE (150°)10.4 mph0.03 inRainRain
5:35 AM46.4 °F44.6 °F93 %29.92 in7.0 miSE (140°)10.4 mph0.05 inRainLight Rain
5:55 AM46.4 °F44.6 °F93 %29.91 in10.0 miSE (140°)9.2 mph0.06 inRainLight Rain
6:15 AM48.2 °F44.6 °F87 %29.91 in10.0 miSSE (160°)10.4 mphRainLight Rain
6:35 AM48.2 °F44.6 °F87 %29.91 in10.0 miSouth (180°)9.2 mph0.01 inRainRain
6:55 AM48.2 °F44.6 °F87 %29.90 in7.0 miSSE (160°)4.6 mph0.03 inDrizzle
7:15 AM48.2 °F44.6 °F87 %29.90 in10.0 miSE (140°)4.6 mph0.01 inOvercast
7:35 AM48.2 °F44.6 °F87 %29.91 in10.0 miSouth (170°)5.8 mph0.01 inRainLight Rain
7:55 AM48.2 °F44.6 °F87 %29.90 in7.0 miSE (140°)5.8 mph0.03 inRainLight Rain
8:15 AM48.2 °F46.4 °F93 %29.91 in10.0 miSE (140°)4.6 mphLight Drizzle
8:35 AM48.2 °F44.6 °F87 %29.91 in10.0 miSouth (170°)4.6 mphRainLight Rain
8:55 AM48.2 °F46.4 °F93 %29.91 in10.0 miCalm0.01 inRainLight Rain
9:15 AM48.2 °F46.4 °F93 %29.91 in10.0 miSouth (190°)9.2 mphOvercast
9:35 AM50.0 °F46.4 °F87 %29.92 in10.0 miSouth (180°)9.2 mph18.4 mphMostly Cloudy
9:55 AM50.0 °F46.4 °F87 %29.92 in10.0 miSouth (190°)9.2 mphMostly Cloudy
10:15 AM50.0 °F46.4 °F87 %29.92 in10.0 miSouth (180°)11.5 mphOvercast
10:35 AM50.0 °F46.4 °F87 %29.92 in10.0 miSouth (170°)9.2 mphOvercast
10:55 AM51.8 °F46.4 °F82 %29.92 in10.0 miSouth (170°)10.4 mph19.6 mphMostly Cloudy
11:15 AM51.8 °F46.4 °F82 %29.93 in7.0 miSouth (170°)10.4 mph18.4 mphOvercast
11:35 AM51.8 °F46.4 °F82 %29.93 in7.0 miSouth (180°)10.4 mph16.1 mphRainLight Rain
11:55 AM53.6 °F46.4 °F77 %29.94 in10.0 miSSW (200°)17.3 mph27.6 mphMostly Cloudy
12:15 PM53.6 °F46.4 °F77 %29.94 in10.0 miSouth (190°)15.0 mphMostly Cloudy
12:35 PM53.6 °F46.4 °F77 %29.95 in10.0 miSSW (200°)15.0 mph21.9 mphMostly Cloudy
12:55 PM51.8 °F44.6 °F76 %29.94 in10.0 miSouth (190°)12.7 mph21.9 mphOvercast
1:15 PM51.8 °F44.6 °F76 %29.94 in10.0 miSouth (190°)15.0 mph20.7 mphOvercast
1:35 PM51.8 °F44.6 °F76 %29.94 in10.0 miSSW (200°)13.8 mph24.2 mphMostly Cloudy
1:55 PM53.6 °F44.6 °F72 %29.93 in7.0 miSSW (200°)13.8 mph20.7 mphMostly Cloudy
2:15 PM51.8 °F44.6 °F76 %29.93 in7.0 miSouth (190°)11.5 mph25.3 mphOvercast
2:35 PM53.6 °F44.6 °F72 %29.93 in7.0 miSouth (190°)17.3 mph23.0 mphOvercast
2:55 PM51.8 °F42.8 °F71 %29.93 in10.0 miSouth (190°)11.5 mph19.6 mphOvercast
3:15 PM51.8 °F44.6 °F76 %29.93 in10.0 miSouth (190°)13.8 mph18.4 mphOvercast
3:35 PM53.6 °F44.6 °F72 %29.92 in7.0 miSSW (200°)15.0 mph19.6 mphOvercast
3:55 PM51.8 °F44.6 °F76 %29.93 in7.0 miSouth (190°)15.0 mph24.2 mphRainLight Rain
4:15 PM50.0 °F44.6 °F82 %29.94 in10.0 miSouth (190°)9.2 mph19.6 mphRainLight Rain
4:35 PM50.0 °F44.6 °F82 %29.95 in10.0 miSSW (200°)4.6 mphOvercast
4:55 PM50.0 °F44.6 °F82 %29.95 in10.0 miSouth (170°)12.7 mphOvercast
5:15 PM50.0 °F44.6 °F82 %29.95 in10.0 miSSW (210°)6.9 mphOvercast
5:35 PM50.0 °F44.6 °F82 %29.96 in10.0 miSSW (200°)4.6 mphOvercast
5:55 PM50.0 °F44.6 °F82 %29.96 in10.0 miSSW (200°)10.4 mph17.3 mphOvercast
6:15 PM50.0 °F44.6 °F82 %29.96 in10.0 miSW (220°)8.1 mphOvercast
6:35 PM50.0 °F44.6 °F82 %29.96 in7.0 miSSW (210°)6.9 mphOvercast
6:55 PM50.0 °F44.6 °F82 %29.96 in7.0 miSSW (200°)8.1 mphOvercast
7:15 PM50.0 °F44.6 °F82 %29.96 in5.0 miSSW (200°)11.5 mph17.3 mph0.02 inRainHeavy Rain
7:35 PM48.2 °F44.6 °F87 %29.97 in10.0 miSW (220°)10.4 mph16.1 mph0.08 inOvercast
7:55 PM50.0 °F44.6 °F82 %29.97 in7.0 miSSW (200°)8.1 mph0.08 inRainLight Rain
8:15 PM48.2 °F44.6 °F87 %29.98 in10.0 miSouth (190°)6.9 mphOvercast
8:35 PM48.2 °F44.6 °F87 %29.98 in7.0 miCalm0.02 inRainHeavy Rain
8:55 PM48.2 °F44.6 °F87 %29.99 in7.0 miSSW (200°)12.7 mph20.7 mph0.04 inRainLight Rain
9:15 PM48.2 °F42.8 °F82 %30.00 in10.0 miSouth (180°)9.2 mphOvercast
9:35 PM48.2 °F42.8 °F82 %30.00 in7.0 miSSW (210°)9.2 mph17.3 mph0.01 inRainRain
9:55 PM46.4 °F42.8 °F87 %30.01 in10.0 miSSE (160°)9.2 mph17.3 mph0.01 inOvercast
10:15 PM46.4 °F42.8 °F87 %30.02 in10.0 miSSE (150°)9.2 mphOvercast
10:35 PM46.4 °F42.8 °F87 %30.02 in10.0 miSSE (160°)8.1 mphOvercast
10:55 PM48.2 °F42.8 °F82 %30.02 in10.0 miSouth (170°)6.9 mphOvercast
11:15 PM48.2 °F42.8 °F82 %30.02 in7.0 miSouth (180°)9.2 mphDrizzle
11:35 PM48.2 °F44.6 °F87 %30.03 in10.0 miSouth (190°)6.9 mphOvercast
Hourly data recorded from KTMK, located miles away from Tillamook, Oregon







STORIES FROM OUR PARTNERS